Location: Chapel Hill
(35.9134°N, 79.0560°W)
Time: 11:16:02
(UTC-04:00)

ACS3 Solar Sail - Pass Details

Date: 20 June 2024
Orbit: 992 x 1023 km, 97.4° (Epoch: 12 July)

Event Time Altitude Azimuth Distance (km) Brightness Sun altitude
Exits shadow 00:17:59 16° 246° (WSW) 2,369 6.7 -29.0°
Maximum altitude 00:20:01 18° 269° (W) 2,223 6.8 -29.1°
Drops below altitude 10° 00:24:09 10° 311° (NW) 2,766 7.8 -29.3°
Sets 00:27:32 0° 330° (NNW) 3,717 8.9 -29.5°
